Delaware, OH

5:09 PM EDT on May 29, 2017 (GMT -0400)
Delaware Municipal

Weather History for KDLZ - December, 2013

Change the Weather History Date:

Monday, December 16, 2013

  Actual Average Record
Temperature  
Mean Temperature 20 °F -  
Max Temperature 26 °F 40 °F 66 °F (1971)
Min Temperature 15 °F 22 °F -14 °F (1951)
Degree Days  
Heating Degree Days 44    
Moisture  
Dew Point 16 °F    
Average Humidity 82    
Maximum Humidity 100    
Minimum Humidity 68    
Precipitation  
Precipitation 0.02 in - - ()
Sea Level Pressure  
Sea Level Pressure 30.08 in    
Wind  
Wind Speed 6 mph (East)    
Max Wind Speed 9 mph    
Max Gust Speed 17 mph    
Visibility 6 miles    
Events Snow    
Averages and records for this station are not official NWS values.
T = Trace of Precipitation, MM = Missing Value Source: NWS Daily Summary

Daily Weather History Graph

Daily Weather History Graph

Search for Another Location

Airport or City:

Trip Planner

Search our weather history database for the weather conditions in past years. The results will help you decide how hot, cold, wet, or windy it might be!

Date:

Astronomy

Dec. 16, 2013 Rise Set
Actual Time 7:48 AM EST 5:07 PM EST
Civil Twilight 7:18 AM EST 5:38 PM EST
Nautical Twilight 6:43 AM EST 6:12 PM EST
Astronomical Twilight 6:10 AM EST 6:45 PM EST
Moon 4:57 PM EST (12/16) 6:56 AM EST (12/16)
Length of Visible Light 10h 20m
Length of Day
9h 18m
Full, 100% of the Moon is Illuminated
Dec 16
Full
Dec 17
Full
Dec 25
Last Quarter
Jan 1
New
Jan 7
First Quarter

Hourly Weather History & Observations

Time (EST) Temp. Windchill Dew Point Humidity Pressure Visibility Wind Dir Wind Speed Gust Speed Precip Events Conditions
12:19 AM 21.2 °F 11.7 °F 12.2 °F 68% 30.07 in 10.0 mi West 8.1 mph - N/A   Overcast
12:38 AM 21.2 °F 10.9 °F 12.2 °F 68% 30.07 in 10.0 mi West 9.2 mph 17.3 mph N/A   Overcast
12:58 AM 21.2 °F 11.7 °F 12.2 °F 68% 30.07 in 10.0 mi West 8.1 mph - N/A   Overcast
1:19 AM 21.2 °F 10.9 °F 12.2 °F 68% 30.07 in 10.0 mi West 9.2 mph - N/A   Overcast
1:38 AM 21.2 °F 11.7 °F 12.2 °F 68% 30.07 in 10.0 mi West 8.1 mph - N/A   Overcast
1:58 AM 21.2 °F 11.7 °F 12.2 °F 68% 30.07 in 10.0 mi West 8.1 mph - N/A   Overcast
2:19 AM 19.4 °F 11.5 °F 12.2 °F 74% 30.07 in 10.0 mi West 5.8 mph - N/A   Overcast
2:38 AM 19.4 °F 10.4 °F 12.2 °F 74% 30.08 in 10.0 mi West 6.9 mph - N/A   Overcast
2:58 AM 19.4 °F 10.4 °F 12.2 °F 74% 30.09 in 10.0 mi WNW 6.9 mph - N/A   Overcast
3:19 AM 19.4 °F 9.5 °F 14.0 °F 80% 30.09 in 5.0 mi WNW 8.1 mph - N/A Snow Light Snow
3:38 AM 19.4 °F 11.5 °F 14.0 °F 80% 30.10 in 5.0 mi WNW 5.8 mph - N/A Snow Light Snow
3:58 AM 19.4 °F 11.5 °F 14.0 °F 80% 30.10 in 7.0 mi West 5.8 mph - N/A Snow Light Snow
4:19 AM 19.4 °F 10.4 °F 14.0 °F 80% 30.09 in 4.0 mi West 6.9 mph - N/A Snow Light Snow
4:38 AM 19.4 °F 10.4 °F 14.0 °F 80% 30.09 in 4.0 mi West 6.9 mph - N/A Snow Light Snow
4:58 AM 19.4 °F 12.8 °F 15.8 °F 86% 30.09 in 4.0 mi NW 4.6 mph - N/A Snow Light Snow
5:18 AM 19.4 °F 12.8 °F 14.0 °F 80% 30.10 in 4.0 mi North 4.6 mph - N/A Snow Light Snow
5:38 AM 17.6 °F 12.3 °F 14.0 °F 86% 30.10 in 2.0 mi NNW 3.5 mph - N/A Snow Light Snow
5:58 AM 17.6 °F 12.3 °F 14.0 °F 86% 30.10 in 1.8 mi NNW 3.5 mph - N/A Snow Light Snow
6:18 AM 17.6 °F 10.7 °F 14.0 °F 86% 30.11 in 1.8 mi North 4.6 mph - N/A Snow Light Snow
6:38 AM 17.6 °F 9.3 °F 14.0 °F 86% 30.11 in 2.0 mi North 5.8 mph - N/A Snow Light Snow
6:58 AM 17.6 °F 10.7 °F 14.0 °F 86% 30.11 in 2.0 mi North 4.6 mph - N/A Snow Light Snow
7:18 AM 15.8 °F 8.6 °F 12.2 °F 86% 30.12 in 3.0 mi NNW 4.6 mph - N/A Snow Light Snow
7:38 AM 15.8 °F 10.2 °F 12.2 °F 86% 30.13 in 2.0 mi NNW 3.5 mph - N/A Snow Light Snow
7:58 AM 15.8 °F 10.2 °F 12.2 °F 86% 30.13 in 2.5 mi North 3.5 mph - N/A Snow Light Snow
8:18 AM 15.8 °F - 12.2 °F 86% 30.13 in 4.0 mi Calm Calm - N/A Snow Light Snow
8:38 AM 15.8 °F - 12.2 °F 86% 30.13 in 2.5 mi Calm Calm - N/A Snow Light Snow
8:58 AM 17.6 °F 12.3 °F 12.2 °F 79% 30.13 in 1.5 mi North 3.5 mph - N/A Snow Light Snow
9:18 AM 17.6 °F - 14.0 °F 86% 30.14 in 1.8 mi Calm Calm - N/A Snow Light Snow
9:38 AM 17.6 °F 12.3 °F 12.2 °F 79% 30.15 in 3.0 mi ENE 3.5 mph - N/A Snow Light Snow
9:58 AM 17.6 °F - 12.2 °F 79% 30.14 in 5.0 mi Calm Calm - N/A Snow Light Snow
10:18 AM 17.6 °F - 14.0 °F 86% 30.15 in 7.0 mi Calm Calm - N/A Snow Light Snow
10:38 AM 19.4 °F 14.3 °F 12.2 °F 74% 30.15 in 10.0 mi ENE 3.5 mph - N/A   Overcast
10:58 AM 19.4 °F 11.5 °F 12.2 °F 74% 30.15 in 10.0 mi ENE 5.8 mph - N/A   Overcast
11:18 AM 19.4 °F 12.8 °F 14.0 °F 80% 30.14 in 10.0 mi East 4.6 mph - N/A   Overcast
11:38 AM 19.4 °F 12.8 °F 12.2 °F 74% 30.13 in 10.0 mi East 4.6 mph - N/A   Overcast
11:58 AM 19.4 °F 12.8 °F 12.2 °F 74% 30.12 in 10.0 mi East 4.6 mph - N/A   Overcast
12:18 PM 21.2 °F 13.6 °F 14.0 °F 74% 30.12 in 10.0 mi ENE 5.8 mph - N/A   Overcast
12:38 PM 21.2 °F 13.6 °F 14.0 °F 74% 30.11 in 10.0 mi East 5.8 mph - N/A   Overcast
12:58 PM 21.2 °F 13.6 °F 14.0 °F 74% 30.10 in 10.0 mi ESE 5.8 mph - N/A   Overcast
1:18 PM 21.2 °F 14.9 °F 14.0 °F 74% 30.08 in 10.0 mi East 4.6 mph - N/A   Overcast
1:38 PM 21.2 °F 16.4 °F 14.0 °F 74% 30.07 in 10.0 mi ESE 3.5 mph - N/A   Overcast
1:58 PM 21.2 °F 14.9 °F 14.0 °F 74% 30.07 in 10.0 mi ESE 4.6 mph - N/A   Overcast
2:18 PM 21.2 °F 14.9 °F 14.0 °F 74% 30.07 in 10.0 mi East 4.6 mph - N/A   Overcast
2:38 PM 21.2 °F 16.4 °F 14.0 °F 74% 30.07 in 10.0 mi East 3.5 mph - N/A   Overcast
2:59 PM 21.2 °F 16.4 °F 14.0 °F 74% 30.07 in 10.0 mi ENE 3.5 mph - N/A   Overcast
3:18 PM 21.2 °F 13.6 °F 14.0 °F 74% 30.07 in 10.0 mi East 5.8 mph - N/A   Overcast
3:38 PM 21.2 °F 14.9 °F 15.8 °F 80% 30.07 in 10.0 mi East 4.6 mph - N/A   Overcast
3:58 PM 23.0 °F 15.8 °F 15.8 °F 74% 30.07 in 10.0 mi East 5.8 mph - N/A   Overcast
4:18 PM 23.0 °F 13.9 °F 15.8 °F 74% 30.07 in 10.0 mi East 8.1 mph - N/A   Overcast
4:38 PM 21.2 °F 12.6 °F 15.8 °F 80% 30.07 in 10.0 mi East 6.9 mph - N/A   Overcast
4:59 PM 21.2 °F 12.6 °F 15.8 °F 80% 30.07 in 10.0 mi East 6.9 mph - N/A   Overcast
5:18 PM 21.2 °F 13.6 °F 15.8 °F 80% 30.06 in 10.0 mi ESE 5.8 mph - N/A   Overcast
5:38 PM 23.0 °F 14.7 °F 17.6 °F 80% 30.06 in 10.0 mi ESE 6.9 mph - N/A   Overcast
5:59 PM 23.0 °F 15.8 °F 17.6 °F 80% 30.06 in 10.0 mi ESE 5.8 mph - N/A   Overcast
6:18 PM 23.0 °F 14.7 °F 17.6 °F 80% 30.06 in 10.0 mi SE 6.9 mph - N/A   Overcast
6:38 PM 23.0 °F 14.7 °F 19.4 °F 86% 30.06 in 7.0 mi ESE 6.9 mph - N/A   Overcast
6:59 PM 23.0 °F 15.8 °F 19.4 °F 86% 30.06 in 7.0 mi SE 5.8 mph - N/A   Overcast
7:18 PM 23.0 °F 15.8 °F 19.4 °F 86% 30.05 in 5.0 mi SE 5.8 mph - N/A   Overcast
7:38 PM 23.0 °F 18.4 °F 21.2 °F 93% 30.05 in 1.5 mi SE 3.5 mph - N/A Snow Light Snow
7:59 PM 23.0 °F 18.4 °F 21.2 °F 93% 30.04 in 1.5 mi SE 3.5 mph - N/A Snow Light Snow
8:18 PM 23.0 °F 18.4 °F 21.2 °F 93% 30.04 in 2.0 mi SE 3.5 mph - N/A Snow Light Snow
8:38 PM 23.0 °F 17.0 °F 23.0 °F 100% 30.03 in 1.5 mi SE 4.6 mph - N/A Snow Light Snow
8:59 PM 23.0 °F - 23.0 °F 100% 30.03 in 1.5 mi Calm Calm - 0.01 in Snow Light Snow
9:18 PM 23.0 °F 17.0 °F 23.0 °F 100% 30.02 in 2.5 mi ESE 4.6 mph - N/A Snow Light Snow
9:38 PM 24.8 °F 19.1 °F 23.0 °F 93% 30.00 in 1.2 mi SE 4.6 mph - 0.01 in Snow Light Snow
9:59 PM 24.8 °F 19.1 °F 23.0 °F 93% 29.99 in 2.5 mi SE 4.6 mph - 0.01 in Snow Light Snow
10:18 PM 24.8 °F 20.5 °F 23.0 °F 93% 29.99 in 3.0 mi SE 3.5 mph - N/A   Overcast
10:38 PM 24.8 °F 19.1 °F 23.0 °F 93% 29.98 in 3.0 mi SE 4.6 mph - N/A   Overcast
10:59 PM 26.6 °F 21.2 °F 24.8 °F 93% 29.99 in 2.5 mi SSE 4.6 mph - N/A   Overcast
11:18 PM 26.6 °F 22.6 °F 24.8 °F 93% 29.98 in 2.5 mi SSE 3.5 mph - N/A   Overcast
11:38 PM 26.6 °F 21.2 °F 26.6 °F 100% 29.98 in 3.0 mi South 4.6 mph - N/A   Overcast
11:59 PM 26.6 °F - 26.6 °F 100% 29.98 in 2.5 mi Calm Calm - N/A   Overcast